TimeCET,TemperatureF,Dew PointF,Humidity,Sea Level PressureIn,VisibilityMPH,Wind Direction,Wind SpeedMPH,Gust SpeedMPH,PrecipitationIn,Events,Conditions,WindDirDegrees,DateUTC
12:00 AM,23.0,17.6,80,29.62,6.2,North,10.4,-,N/A,Snow,Light Snow,360,2013-01-18 23:00:00
12:30 AM,23.0,17.6,80,29.62,6.2,NNW,11.5,-,N/A,Snow,Light Snow,340,2013-01-18 23:30:00
1:00 AM,24,15,58,29.67,11,North,13.4,,,Snow,Light Snow,10,2013-01-19 00:00:00
1:00 AM,23.0,17.6,80,29.59,6.2,North,13.8,-,N/A,,Partly Cloudy,360,2013-01-19 00:00:00
1:30 AM,23.0,17.6,80,29.59,6.2,North,13.8,-,N/A,,Scattered Clouds,360,2013-01-19 00:30:00
2:00 AM,23.0,17.6,80,29.59,6.2,North,11.5,-,N/A,,Mostly Cloudy,360,2013-01-19 01:00:00
2:30 AM,23.0,17.6,80,29.59,-9999.0,North,11.5,-,N/A,,Mostly Cloudy,360,2013-01-19 01:30:00
3:00 AM,23.0,15.8,74,29.56,6.2,North,11.5,-,N/A,,Mostly Cloudy,10,2013-01-19 02:00:00
3:30 AM,23.0,15.8,74,29.56,6.2,North,10.4,-,N/A,,Overcast,360,2013-01-19 02:30:00
4:00 AM,23.0,15.8,74,29.56,6.2,North,11.5,-,N/A,,Overcast,360,2013-01-19 03:00:00
4:30 AM,23.0,15.8,74,29.56,6.2,North,10.4,-,N/A,,Overcast,10,2013-01-19 03:30:00
5:00 AM,23.0,15.8,74,29.56,6.2,North,9.2,-,N/A,,Overcast,360,2013-01-19 04:00:00
5:30 AM,23.0,15.8,74,29.56,6.2,North,9.2,-,N/A,,Overcast,350,2013-01-19 04:30:00
6:00 AM,23.0,15.8,74,29.53,6.2,North,10.4,-,N/A,,Overcast,360,2013-01-19 05:00:00
6:30 AM,23.0,15.8,74,29.53,6.2,North,9.2,-,N/A,,Overcast,10,2013-01-19 05:30:00
7:00 AM,23.0,15.8,74,29.53,6.2,NNE,11.5,-,N/A,,Overcast,20,2013-01-19 06:00:00
7:30 AM,23.0,15.8,74,29.53,6.2,NNE,10.4,-,N/A,,Overcast,30,2013-01-19 06:30:00
8:00 AM,23.0,15.8,74,29.53,6.2,NNE,9.2,-,N/A,,Overcast,20,2013-01-19 07:00:00
8:30 AM,23.0,15.8,74,29.53,6.2,NNE,8.1,-,N/A,,Overcast,20,2013-01-19 07:30:00
9:00 AM,23.0,15.8,74,29.53,6.2,NE,10.4,-,N/A,,Mostly Cloudy,40,2013-01-19 08:00:00
9:08 AM,23.0,15.8,74,29.53,6.2,NNE,10.4,-,N/A,,Mostly Cloudy,30,2013-01-19 08:08:00
9:30 AM,23.0,15.8,74,29.53,6.2,NE,10.4,-,N/A,,Overcast,40,2013-01-19 08:30:00
10:00 AM,23.0,15.8,74,29.53,6.2,NE,10.4,-,N/A,,Overcast,40,2013-01-19 09:00:00
10:30 AM,23.0,15.8,74,29.53,6.2,ENE,9.2,-,N/A,,Mostly Cloudy,60,2013-01-19 09:30:00
11:00 AM,23.0,15.8,74,29.53,6.2,NE,12.7,-,N/A,,Mostly Cloudy,50,2013-01-19 10:00:00
11:30 AM,23.0,15.8,74,29.53,6.2,ENE,10.4,-,N/A,,Mostly Cloudy,70,2013-01-19 10:30:00
12:00 PM,23.0,15.8,74,29.53,5.6,ENE,10.4,-,N/A,,Mostly Cloudy,70,2013-01-19 11:00:00
12:30 PM,23.0,15.8,74,29.50,5.0,East,12.7,-,N/A,,Mostly Cloudy,80,2013-01-19 11:30:00
1:00 PM,23,15,59,29.59,5,ENE,13.4,,,,Mist,70,2013-01-19 12:00:00
1:00 PM,23.0,15.8,74,29.50,5.0,East,11.5,-,N/A,,Mostly Cloudy,80,2013-01-19 12:00:00
1:30 PM,23.0,15.8,74,29.50,5.0,East,12.7,-,N/A,,Scattered Clouds,80,2013-01-19 12:30:00
2:00 PM,23.0,15.8,74,29.50,3.7,East,12.7,-,N/A,,Mostly Cloudy,80,2013-01-19 13:00:00
2:30 PM,23.0,15.8,74,29.50,3.7,ENE,13.8,-,N/A,,Scattered Clouds,70,2013-01-19 13:30:00
3:00 PM,23.0,15.8,74,29.50,3.7,East,11.5,-,N/A,,Mostly Cloudy,80,2013-01-19 14:00:00
3:30 PM,23.0,15.8,74,29.50,3.7,East,10.4,-,N/A,,Mostly Cloudy,80,2013-01-19 14:30:00
4:00 PM,23.0,17.6,80,29.53,3.7,East,10.4,-,N/A,,Overcast,80,2013-01-19 15:00:00
4:30 PM,23.0,17.6,80,29.53,3.7,ENE,8.1,-,N/A,,Overcast,70,2013-01-19 15:30:00
4:47 PM,23.0,17.6,80,29.53,3.1,ENE,9.2,-,N/A,,Overcast,60,2013-01-19 15:47:00
5:00 PM,23.0,17.6,80,29.53,3.1,ENE,9.2,-,N/A,,Overcast,60,2013-01-19 16:00:00
5:30 PM,23.0,15.8,74,29.53,3.1,ENE,10.4,-,N/A,,Overcast,70,2013-01-19 16:30:00
6:00 PM,23.0,17.6,80,29.53,3.1,ENE,8.1,-,N/A,,Overcast,70,2013-01-19 17:00:00
6:30 PM,23.0,17.6,80,29.53,3.1,ENE,8.1,-,N/A,,Overcast,60,2013-01-19 17:30:00
7:00 PM,23,16,64,29.62,3,NE,8.9,,,,Mist,50,2013-01-19 18:00:00
7:00 PM,23.0,17.6,80,29.53,3.1,NE,9.2,-,N/A,,Overcast,50,2013-01-19 18:00:00
7:30 PM,23.0,17.6,80,29.56,3.1,ENE,8.1,-,N/A,,Overcast,60,2013-01-19 18:30:00
8:00 PM,23.0,17.6,80,29.56,3.1,ENE,9.2,-,N/A,,Overcast,60,2013-01-19 19:00:00
8:30 PM,23.0,17.6,80,29.53,2.8,ENE,9.2,-,N/A,,Overcast,70,2013-01-19 19:30:00
9:00 PM,23.0,17.6,80,29.53,2.8,ENE,11.5,-,N/A,,Overcast,70,2013-01-19 20:00:00
9:30 PM,21.2,17.6,86,29.53,2.8,ENE,10.4,-,N/A,,Overcast,70,2013-01-19 20:30:00
10:00 PM,21.2,17.6,86,29.56,2.8,East,10.4,-,N/A,,Overcast,80,2013-01-19 21:00:00
10:30 PM,23.0,17.6,80,29.56,2.8,ENE,9.2,-,N/A,,Overcast,70,2013-01-19 21:30:00
11:00 PM,23.0,17.6,80,29.56,2.8,ENE,9.2,-,N/A,,Overcast,70,2013-01-19 22:00:00
11:30 PM,23.0,17.6,80,29.56,-9999.0,ENE,9.2,-,N/A,,Overcast,70,2013-01-19 22:30:00